SAKURA

Last updated on Thu Nov 21 2024 00:02:09 GMT+0000 (Coordinated Universal Time)

1 60954U 98067WU 24325.24954963 .00766984 26317-3 19062-2 0 9994 2 60954 51.6200 252.5517 0009999 168.4681 191.6557 15.95188264 12980
UTC large
Height (km)
Speed (km/s)
/
Latitude / Longitude
Inclination (degrees)
Orbital Period (minutes)
Azimuth
Elevation
Range (km)
Doppler Factor

Next 0 passes for location: London (51.5072 / 0.1276)

Sorry there are no passes over London.